Location: Noordwijk
(52.2400°N, 4.4500°E)
Time: 09:08:03
(UTC+00:00)

XW-2D - Visible Passes

Search period start: 27 November 2022 00:00
Search period end: 07 December 2022 00:00
Orbit: 491 x 509 km, 97.5° (Epoch: 26 November)

Date Brightness Start Highest point End Pass type
(mag) Time Alt. Az. Time Alt. Az. Time Alt. Az.
27 Nov ? 05:22:37 10° NE 05:25:50 28° E 05:29:01 10° SSE visible
27 Nov ? 17:39:54 10° SSW 17:43:03 27° W 17:46:13 10° NW visible
28 Nov ? 05:03:26 10° NE 05:06:02 18° E 05:08:38 10° SE visible
28 Nov ? 06:36:31 10° N 06:40:01 44° WNW 06:43:28 10° SW visible
28 Nov ? 17:19:47 10° S 17:23:18 42° W 17:26:50 10° NNW visible
29 Nov ? 04:44:47 10° ENE 04:46:11 12° E 04:47:34 10° ESE visible
29 Nov ? 06:16:46 10° N 06:20:24 72° WNW 06:24:01 10° SSW visible
29 Nov ? 16:59:56 10° S 17:03:36 71° WSW 17:07:16 10° NNW visible
30 Nov ? 05:57:06 10° NNE 06:00:44 68° ESE 06:04:21 10° S visible
30 Nov ? 16:40:17 10° SSE 16:43:56 71° ENE 16:47:36 10° N visible
30 Nov ? 18:16:34 10° WSW 18:18:08 12° W 18:19:42 10° WNW visible
01 Dec ? 05:37:32 10° NNE 05:41:01 41° E 05:44:28 10° S visible
01 Dec ? 16:20:50 10° SE 16:24:19 43° ENE 16:27:48 10° N visible
01 Dec ? 17:55:34 10° SW 17:58:15 19° W 18:00:57 10° NW visible
02 Dec ? 05:18:07 10° NE 05:21:13 25° E 05:24:18 10° SSE visible
02 Dec ? 06:51:44 10° N 06:55:00 31° WNW 06:58:14 10° SW visible
02 Dec ? 17:35:10 10° SSW 17:38:25 29° W 17:41:41 10° NNW visible
03 Dec ? 04:58:58 10° NE 05:01:22 16° E 05:03:45 10° SE visible
03 Dec ? 06:31:51 10° N 06:35:23 49° WNW 06:38:54 10° SW visible
03 Dec ? 17:15:05 10° S 17:18:38 48° W 17:22:12 10° NNW visible
04 Dec ? 04:40:43 10° ENE 04:41:26 10° E 04:42:09 10° E visible
04 Dec ? 06:12:03 10° NNE 06:15:43 82° WNW 06:19:21 10° SSW visible
04 Dec ? 16:55:13 10° SSE 16:58:53 80° WSW 17:02:34 10° NNW visible
05 Dec ? 05:52:23 10° NNE 05:55:59 60° E 05:59:35 10° S visible
05 Dec ? 16:35:34 10° SSE 16:39:11 62° ENE 16:42:48 10° N visible
05 Dec ? 18:11:23 10° WSW 18:13:19 14° W 18:15:15 10° WNW visible
06 Dec ? 05:32:47 10° NNE 05:36:12 36° E 05:39:35 10° SSE visible
06 Dec ? 16:16:07 10° SE 16:19:31 38° ENE 16:22:56 10° N visible
06 Dec ? 17:50:33 10° SW 17:53:24 21° W 17:56:15 10° NW visible
